Location: Baia Mare
(47.6567°N, 23.5850°E)
Time: 21:39:15
(UTC+02:00)

ISS - Pass Details

Date: 02 February 2020
Orbit: 417 x 420 km, 51.6° (Epoch: 26 October)

Event Time Altitude Azimuth Distance (km) Brightness Sun altitude
Rises 20:24:05 0° 291° (WNW) 2,371 1.2 -29.9°
Reaches altitude 10° 20:26:17 10° 283° (WNW) 1,502 -0.1 -30.2°
Enters shadow 20:26:57 15° 277° (W) 1,256 -0.5 -30.4°
